This is the latest recevied weather packets stored in our database for station/object M0TUM-1. If no packets are shown the sender has not sent any weather packets the latest 10 day(s).
| Time | Temp. | Humidity | Pressure | Rain* | Wind** | Luminosity | Snow |
|---|---|---|---|---|---|---|---|
| 1778090304 | 10° C | 79% | 1013.7 hPa | 0 mm | - | 34 W/m² | - |
| 1778090001 | 10° C | 79% | 1013.5 hPa | 0 mm | - | 40 W/m² | - |
| 1778089698 | 10° C | 79% | 1013.5 hPa | 0 mm | - | 43 W/m² | - |
| 1778089396 | 10° C | 79% | 1013.5 hPa | 0 mm | - | 63 W/m² | - |
| 1778089093 | 10° C | 79% | 1013.3 hPa | 0 mm | - | 68 W/m² | - |
| 1778088790 | 10° C | 79% | 1013.4 hPa | 0 mm | - | 84 W/m² | - |
| 1778088487 | 10° C | 79% | 1013.4 hPa | 0 mm | - | 91 W/m² | - |
| 1778088183 | 10° C | 79% | 1013.3 hPa | 0 mm | - | 97 W/m² | - |
| 1778087881 | 10.56° C | 79% | 1013.1 hPa | 0 mm | - | 113 W/m² | - |
| 1778087578 | 10° C | 79% | 1013.3 hPa | 0 mm | - | 108 W/m² | - |
| 1778087275 | 10.56° C | 79% | 1013.1 hPa | 0 mm | - | 90 W/m² | - |
| 1778086972 | 10° C | 79% | 1013.4 hPa | 0 mm | - | 81 W/m² | - |
| 1778086670 | 10.56° C | 79% | 1013.2 hPa | 0 mm | - | 81 W/m² | - |
| 1778086367 | 10.56° C | 80% | 1013.3 hPa | 0 mm | - | 88 W/m² | - |
| 1778086064 | 10.56° C | 80% | 1013.1 hPa | 0 mm | - | 88 W/m² | - |
| 1778085761 | 10.56° C | 80% | 1013.1 hPa | 0 mm | - | 108 W/m² | - |
| 1778085458 | 10.56° C | 80% | 1013.1 hPa | 0 mm | - | 98 W/m² | - |
| 1778085152 | 10.56° C | 80% | 1013 hPa | 0 mm | - | 66 W/m² | - |
| 1778084849 | 10° C | 81% | 1013.2 hPa | 0 mm | - | 77 W/m² | - |
| 1778084547 | 10° C | 82% | 1013.2 hPa | 0 mm | - | 76 W/m² | - |
| 1778084244 | 10° C | 83% | 1013.1 hPa | 0 mm | - | 66 W/m² | - |
| 1778083941 | 10° C | 84% | 1013.1 hPa | 0 mm | - | 58 W/m² | - |
| 1778083639 | 10° C | 85% | 1013.2 hPa | 0 mm | - | 44 W/m² | - |
| 1778083335 | 10° C | 85% | 1013.1 hPa | 0 mm | - | 39 W/m² | - |
| 1778083034 | 10° C | 86% | 1013 hPa | 0 mm | - | 31 W/m² | - |
* Rain latest hour (hover to see other rain measurements)
** Current wind speed in m/s (hover to see current wind gust speed)